星链-11635 (STARLINK-11635)

导读 | 豆包AI

STARLINK-11635是美国SpaceX公司星链(Starlink)卫星互联网星座的一员,于2025年3月13日成功发射,该卫星旨在为全球偏远地区提供低延迟、高速的宽带互联网接入服务,属于星链星座批量部署计划中的卫星,截至目前已在轨正常运行近一年,星链项目计划最终部署超4万颗卫星,STARLINK-11635的入轨进一步完善了星链的全球覆盖能力。

基本信息
目录编号:
63193
目录名称:
STARLINK-11635
国际标识:
2025-048L
轨道中心:
EARTH
卫星名称:
星链-11635
卫星全名:
星链-11635 (STARLINK-11635)
卫星状态:
在轨 (已飞行366 天)
发射日期:
2025-03-13 UTC
国别 :
美国 (US)
星等 :
--
轨道信息
数据来源 国际轨道数据
星历时间: 2026-03-14T23:28:20+0800
8小时前
查看轨道信息
半长轴: 6734.554km
偏心率: 0.000174
轨道倾角: 42.998°
近地点辐角 243.529°
升交点赤经 289.741°
平近点角 116.540°
近地点: 355.245km
远地点: 357.589km
周期: 91.669分钟
每日圈数: 15.708674
详细信息
固有亮度:
5
最大亮度:
2.5
卫星平台:
Starlink V1.0
覆盖范围:
全球
运营商:
太空探索技术公司
运营商所在国:
美国
制造商(研发单位):
太空探索技术公司
制造商所在国:
美国
使用方式:
暂无
卫星简介
Starlink 计划是 SpaceX 推出的全球卫星互联网项目,通过发射低轨道卫星,为全球尤其是偏远地区提供高速、低延迟的互联网服务。自 2019 年起,Starlink 已部署数千颗卫星,旨在缩小全球数字鸿沟,推动互联网普及。该项目还为军事、航空等行业提供通信支持,带来广泛经济效益。
2D轨道图
3D轨道图
轨道高度分析图
轨道倾角分析图
轨道综合分析图
查看轨道综合分析图